Vertical_Velocity
-1 1 0 1 0 1 -1 -1 -0 -1 -0 -0 -1 -0 -1 -1 0 1 1 1 0 1 1 0 -1 -0 0 1 0 -2 -2 -2 -1 -2 -1 -1 -0 -2 -3 -2 -3 -3 -3
1 2 0 1 2 0 0 -1 -1 -1 -0 0 -1 -0 -1 0 -1 -0 -0 1 2 0 0 0 0 0 -1 0 -1 -2 -2 -2 -2 -2 -1 -1 -0 -0 -0 -2 -1 0 -0
-1 0 1 1 2 2 -0 0 1 -0 0 0 1 -0 1 -1 -1 -1 1 -1 -0 -0 -1 -0 -1 -1 -1 -0 -1 -2 -2 -1 -2 -1 -2 -3 -2 -2 -3 -2 -2 -1 -2
-1 -0 -0 1 1 1 0 0 0 1 1 1 1 1 -0 -0 0 0 0 0 -1 0 -0 -0 -1 -1 -0 -1 -0 -3 -0 -3 -1 -2 -2 -2 -2 -1 -1 -3 -3 -3 -4
0 -0 1 0 2 1 1 1 -0 1 1 1 -0 0 0 0 -1 0 -0 0 -0 0 0 0 0 -0 0 -0 -0 -0 1 0 1 1 1 1 -0 -1 -2 -1 -2 -1 -0
1 1 0 1 1 1 1 0 -1 1 1 0 1 1 1 0 -0 -1 -0 -1 0 -0 2 0 -0 0 -0 -1 0 -2 0 -1 -1 -1 -3 -2 -1 -1 -2 -2 -0 -1 -1
1 1 2 1 0 0 1 0 0 1 0 0 2 1 1 0 0 0 1 -0 1 -0 -0 -0 -0 1 -0 -0 1 -0 1 -1 1 0 -0 -1 -1 -1 -1 0 -2 -3 -2
0 1 0 1 1 1 0 0 -0 0 0 -0 0 1 0 1 -0 1 1 -0 -0 -0 1 1 1 0 1 -0 -1 -0 -1 -2 0 -0 -2 -2 -3 -3 -2 -4 -3 -1 -2
-3 1 2 1 1 1 0 1 -2 -0 -0 -1 1 0 -0 1 -1 0 1 0 1 1 -0 2 1 1 -1 1 0 -1 -0 0 1 -2 -3 -4 -3 -2 -2 -2 -2 -2 -3
0 0 2 2 2 1 1 -1 -0 -0 1 -0 -0 1 1 -1 0 1 -1 -1 0 -0 -2 2 1 -0 -1 0 -0 -1 -1 -1 -1 -2 -3 -2 -2 -1 -2 -1 -2 -1 -1
1 0 1 1 1 1 2 2 1 1 1 1 -0 1 0 1 1 -1 -0 -0 -0 -0 0 1 1 -0 -0 -0 1 -2 -1 0 -0 -3 -3 -0 -2 -3 -4 -3 -1 -1 -3
-1 -1 2 1 4 2 0 2 1 1 1 0 1 -1 2 2 1 -1 0 1 1 1 0 1 -0 0 0 0 0 0 -1 -3 -1 -2 -3 -0 -3 -4 -4 -2 -3 -4 -3
-2 -3 -1 1 2 1 -0 1 1 0 0 -0 -1 1 1 1 0 1 1 1 1 1 -1 0 -1 -1 -1 -0 -1 -1 -2 -3 -2 -4 -1 -1 -3 -6 -2 -3 -5 -2 -3
2 -0 -3 -1 -0 0 1 1 2 2 -1 -1 -0 -1 -2 -0 1 2 1 1 0 1 -0 0 0 0 -0 -1 0 0 -1 -2 -2 -2 -0 -1 -2 1 -3 -3 -4 -1 -3
-0 3 -1 1 -0 0 0 2 2 1 2 1 0 0 0 1 1 0 1 1 -0 0 -1 0 1 0 0 0 -1 -1 -0 -1 -3 -1 0 -1 -5 -1 -2 -3 -3 -3 -2
-0 3 -1 2 -0 1 -3 -2 2 1 1 1 0 -0 -0 1 1 0 -0 0 0 1 -0 1 0 -1 0 2 0 -1 -0 -2 -2 -0 -0 -2 -0 -3 -3 -3 -2 -1 -2
5 1 3 2 1 2 -2 -2 -0 1 -0 0 -1 -0 -0 0 1 0 -1 1 0 0 -1 -1 1 -1 0 1 1 -0 -0 -1 -0 -0 0 -3 -1 -3 -2 -2 -2 -0 -1
-1 4 1 1 1 1 0 -1 -1 -0 0 -0 0 0 -1 -0 0 -1 -1 -1 1 1 1 -0 0 1 0 1 -1 0 -0 -0 -1 1 -1 -2 -3 -3 -2 -2 -2 -2 -1
6 0 2 1 1 -1 1 1 1 1 1 -3 -0 1 -0 -0 0 -2 -0 -0 1 1 -1 1 1 1 -0 1 -1 -1 -1 0 -0 -2 -2 -2 -3 0 -2 -2 -2 -1 -2
11 -1 -3 -2 3 -1 1 -1 -1 0 2 2 0 1 0 1 -1 -0 -0 -0 0 -0 -0 1 -0 0 -1 -1 -0 -1 -1 -1 1 1 -2 -3 -3 -1 -2 -1 1 -1 -2
-6 3 8 1 3 -2 3 3 3 2 -2 1 1 1 -0 0 -1 -1 0 0 0 -0 -0 -0 0 0 0 -0 -1 1 1 -1 -1 -1 -1 -1 -1 -1 -1 -5 -1 -1 1
94 6 3 5 1 1 4 2 -1 -2 -0 -0 2 -0 -0 -1 -1 -1 -1 0 1 -1 -1 0 -0 -0 -0 0 1 -1 -0 -0 -1 -2 -2 -2 1 2 -0 -4 -2 -1 -1
25 13 3 2 6 4 -2 3 1 0 3 7 4 -0 -2 -1 -1 -2 -1 -1 -2 -1 -1 -1 -1 -1 -1 -1 -1 -1 -1 -0 -1 -2 -0 -3 -1 -1 -0 -2 -2 -1 0
16 52 19 5 -0 -2 2 2 4 3 2 -1 -2 -1 0 -1 1 -0 -0 -0 -1 -2 -0 -1 -1 -1 -1 -2 -2 -2 -0 -1 -1 -3 -1 -2 -2 -2 -1 -1 -2 -4 -2
-9 -6 14 3 1 1 -4 -3 1 4 3 3 -1 1 -0 1 -1 -2 -1 -1 -0 -0 -2 0 -0 -1 -1 -0 -2 -2 -2 -0 -1 -2 -3 -1 -2 -3 -2 -1 -1 -2 -3
2 3 4 -3 9 -8 14 -8 -0 6 4 3 1 -1 1 -1 0 -1 -2 -2 -2 -2 -2 -0 0 -0 -1 -1 -0 -0 0 -1 -2 -2 -2 -0 0 -4 -3 -2 -2 -1 -3
Height
5851 5852 5854 5856 5856 5857 5858 5859 5860 5862 5864 5866 5867 5868 5869 5870 5870 5871 5871 5872 5872 5873 5873 5873 5873 5873 5873 5874 5873 5873 5871 5869 5868 5867 5867 5866 5866 5864 5863 5861 5859 5857 5855
5850 5851 5852 5854 5855 5856 5857 5858 5860 5861 5863 5865 5867 5868 5869 5870 5870 5871 5871 5871 5872 5873 5873 5873 5873 5873 5873 5873 5873 5872 5871 5871 5870 5869 5868 5867 5866 5863 5861 5858 5856 5855 5853
5847 5849 5851 5852 5854 5855 5856 5857 5859 5861 5863 5864 5866 5868 5869 5870 5870 5871 5871 5871 5872 5873 5873 5873 5874 5873 5873 5873 5872 5872 5871 5871 5870 5870 5868 5867 5865 5863 5860 5858 5856 5853 5850
5844 5846 5848 5850 5852 5854 5855 5856 5858 5860 5862 5864 5866 5867 5869 5870 5870 5871 5871 5871 5872 5872 5873 5873 5873 5873 5873 5873 5872 5872 5872 5872 5871 5870 5869 5866 5864 5862 5859 5856 5853 5850 5848
5840 5843 5845 5847 5849 5852 5854 5855 5857 5859 5861 5863 5865 5866 5868 5869 5870 5870 5871 5871 5872 5872 5872 5873 5873 5873 5873 5873 5872 5872 5872 5871 5871 5869 5867 5866 5863 5860 5857 5854 5851 5848 5845
5837 5839 5842 5845 5847 5849 5851 5853 5855 5857 5860 5862 5864 5866 5867 5868 5869 5870 5871 5871 5872 5872 5872 5872 5873 5872 5873 5873 5873 5872 5872 5871 5869 5867 5866 5864 5861 5858 5855 5852 5848 5844 5840
5832 5835 5839 5842 5844 5846 5849 5851 5853 5856 5859 5861 5863 5865 5866 5867 5868 5869 5870 5871 5871 5872 5872 5872 5872 5872 5872 5872 5872 5871 5870 5869 5867 5865 5863 5861 5858 5855 5851 5848 5844 5840 5836
5829 5832 5835 5838 5841 5843 5846 5849 5852 5854 5857 5859 5861 5863 5865 5866 5867 5868 5869 5870 5871 5871 5871 5871 5871 5871 5871 5870 5870 5869 5868 5867 5865 5863 5861 5858 5855 5851 5848 5844 5840 5835 5830
5825 5829 5832 5834 5837 5840 5844 5846 5849 5852 5854 5857 5860 5862 5863 5864 5866 5867 5867 5868 5869 5869 5869 5870 5869 5869 5869 5868 5868 5867 5866 5864 5862 5860 5858 5855 5852 5848 5845 5840 5835 5830 5825
5821 5824 5828 5831 5834 5837 5840 5843 5846 5849 5852 5855 5858 5860 5862 5863 5864 5865 5866 5867 5867 5867 5868 5867 5867 5867 5866 5866 5865 5864 5863 5861 5859 5857 5855 5852 5848 5845 5841 5836 5830 5825 5820
5818 5821 5825 5828 5830 5833 5836 5840 5843 5846 5850 5852 5855 5857 5859 5861 5862 5863 5864 5865 5865 5865 5865 5865 5865 5864 5863 5863 5862 5861 5860 5858 5856 5854 5852 5848 5845 5842 5839 5833 5827 5822 5816
5812 5815 5820 5824 5826 5830 5833 5836 5840 5843 5847 5850 5852 5854 5856 5858 5859 5861 5862 5862 5862 5862 5862 5862 5862 5861 5860 5860 5859 5858 5857 5855 5853 5851 5849 5846 5843 5839 5835 5830 5824 5819 5813
5806 5809 5814 5818 5822 5825 5828 5832 5836 5840 5843 5847 5849 5852 5853 5855 5857 5858 5858 5859 5859 5859 5859 5859 5859 5859 5858 5857 5856 5855 5854 5852 5850 5849 5846 5843 5840 5835 5831 5826 5821 5815 5810
5801 5806 5808 5813 5817 5821 5825 5827 5831 5835 5839 5842 5845 5848 5851 5852 5853 5854 5855 5855 5855 5856 5856 5856 5856 5856 5855 5854 5853 5851 5851 5849 5847 5845 5842 5840 5836 5832 5828 5823 5817 5812 5808
5795 5800 5803 5807 5811 5816 5820 5823 5827 5831 5835 5838 5841 5844 5846 5848 5849 5850 5850 5851 5851 5851 5851 5851 5851 5852 5851 5850 5848 5847 5846 5846 5844 5841 5839 5836 5832 5828 5825 5820 5814 5809 5805
5789 5793 5798 5802 5806 5810 5814 5818 5822 5828 5831 5834 5837 5840 5842 5843 5844 5845 5845 5846 5846 5846 5846 5846 5847 5847 5846 5846 5845 5844 5843 5842 5840 5838 5835 5832 5829 5825 5822 5817 5811 5807 5803
5782 5786 5791 5796 5801 5806 5810 5815 5819 5823 5827 5831 5834 5836 5838 5839 5840 5841 5841 5841 5841 5841 5841 5841 5842 5842 5842 5841 5841 5840 5839 5838 5836 5834 5832 5829 5826 5823 5819 5814 5809 5805 5802
5773 5779 5784 5790 5796 5801 5806 5810 5814 5819 5822 5826 5829 5832 5834 5835 5836 5836 5836 5837 5837 5837 5837 5837 5838 5837 5837 5837 5836 5836 5835 5834 5833 5830 5828 5826 5823 5819 5815 5810 5805 5802 5799
5766 5771 5778 5785 5791 5795 5800 5805 5810 5814 5817 5820 5823 5826 5829 5831 5832 5832 5832 5833 5833 5833 5833 5833 5833 5833 5833 5833 5833 5832 5831 5830 5829 5826 5824 5822 5819 5816 5812 5807 5802 5800 5797
5755 5764 5771 5778 5782 5789 5793 5799 5804 5810 5813 5815 5818 5821 5824 5826 5828 5828 5829 5829 5829 5829 5829 5829 5830 5829 5829 5829 5829 5828 5827 5825 5824 5823 5821 5818 5815 5811 5808 5804 5799 5797 5795
5747 5754 5761 5768 5774 5782 5788 5795 5800 5803 5807 5810 5812 5816 5819 5821 5823 5824 5824 5825 5825 5825 5825 5825 5826 5825 5825 5825 5825 5824 5823 5821 5820 5819 5817 5815 5812 5808 5804 5800 5796 5793 5791
5730 5747 5753 5762 5768 5775 5782 5786 5790 5796 5800 5805 5809 5811 5813 5816 5818 5820 5820 5820 5821 5821 5821 5821 5821 5821 5821 5821 5820 5819 5818 5817 5816 5815 5813 5811 5808 5804 5800 5796 5792 5789 5787
5729 5734 5744 5753 5760 5768 5773 5777 5784 5790 5794 5800 5802 5804 5807 5810 5812 5814 5815 5815 5816 5816 5816 5816 5816 5816 5816 5816 5815 5814 5813 5812 5811 5809 5808 5806 5803 5800 5796 5792 5788 5785 5783
5724 5729 5735 5744 5751 5759 5763 5769 5776 5782 5785 5790 5793 5798 5800 5803 5806 5807 5809 5810 5810 5811 5811 5811 5811 5811 5811 5810 5809 5808 5807 5806 5805 5804 5802 5800 5797 5794 5791 5788 5784 5781 5778
5712 5718 5727 5735 5743 5749 5753 5758 5765 5772 5776 5781 5786 5790 5794 5796 5799 5800 5802 5803 5804 5805 5805 5805 5805 5805 5804 5804 5803 5803 5801 5800 5799 5798 5796 5794 5791 5788 5785 5782 5779 5775 5773
5706 5712 5721 5730 5739 5741 5748 5749 5754 5761 5767 5773 5778 5782 5786 5789 5791 5793 5795 5797 5798 5798 5798 5798 5799 5798 5797 5797 5796 5796 5795 5794 5792 5791 5790 5788 5785 5782 5779 5776 5774 5770 5767